カタログに戻る

FENGYUN 1C DEB

LostPO
NORAD 36242·DEBRIS·🇨🇳 China

打ち上げ May 10, 1999 から Taiyuan Satellite Launch Center

Loading…

次のパス (今後24時間)

TLE

古いSource: Space-Track

元期: Sep 21, 2022, 06:13 UTC

1 36242U 99025DVT 22264.25970718  .00001880  00000-0  11366-2 0  9993
2 36242  98.1260  69.7113 0074431 122.9926 237.8426 14.06188807767726

AllMySatでFENGYUN 1C DEBをリアルタイム追跡

Download on the App Store